LAN172 SCIP-SCCI

Flight info

Callsign LAN172
Flight time N/A
Altitude 39000
Route ASALA2J ASALA DCT 35S100W 43S090W 49S080W DCT NEDAX NEDAX3E
Aircraft A20N/M-SDE2E3FGHIRWXY/LB1

Departure

Time 2026-04-30 10:57
Airport Mataveri International Airport (SCIP)

Arrival

Time N/A
Airport President Carlos Ibáñez International Airport (SCCI)
Time Latitude Longitude Altitude Speed Heading
2026-04-30 10:40 -27.15995 -109.42876 158 ft 0 kts 298°
2026-04-30 10:42 -27.15997 -109.42872 158 ft 2 kts 298°
2026-04-30 10:43 -27.16003 -109.42859 158 ft 2 kts 295°
2026-04-30 10:43 -27.16008 -109.42845 158 ft 2 kts 285°
2026-04-30 10:43 -27.16009 -109.42841 158 ft 0 kts 284°
2026-04-30 10:49 -27.16010 -109.42846 158 ft 0 kts 255°
2026-04-30 10:49 -27.16013 -109.42849 159 ft 2 kts 242°
2026-04-30 10:50 -27.16029 -109.42868 159 ft 4 kts 229°
2026-04-30 10:50 -27.16034 -109.42908 159 ft 7 kts 282°
2026-04-30 10:50 -27.16017 -109.42965 155 ft 6 kts 273°
2026-04-30 10:50 -27.16019 -109.42975 155 ft 0 kts 253°
2026-04-30 10:52 -27.16021 -109.42979 155 ft 1 kts 240°
2026-04-30 10:52 -27.16034 -109.42994 156 ft 5 kts 218°
2026-04-30 10:52 -27.16051 -109.43005 156 ft 0 kts 207°
2026-04-30 10:52 -27.16052 -109.43005 156 ft 1 kts 207°
2026-04-30 10:53 -27.16072 -109.43023 156 ft 6 kts 232°
2026-04-30 10:53 -27.16068 -109.43089 153 ft 13 kts 295°
2026-04-30 10:53 -27.16026 -109.43180 147 ft 10 kts 297°
2026-04-30 10:53 -27.15985 -109.43271 142 ft 17 kts 296°
2026-04-30 10:54 -27.15923 -109.43408 135 ft 22 kts 297°
2026-04-30 10:54 -27.15873 -109.43512 134 ft 11 kts 299°
2026-04-30 10:54 -27.15820 -109.43572 133 ft 12 kts 324°
2026-04-30 10:54 -27.15793 -109.43635 133 ft 8 kts 240°
2026-04-30 10:55 -27.15814 -109.43632 133 ft 3 kts 151°
2026-04-30 10:55 -27.15831 -109.43607 133 ft 5 kts 118°
2026-04-30 10:55 -27.15834 -109.43601 133 ft 0 kts 118°
2026-04-30 10:56 -27.15868 -109.43527 134 ft 40 kts 116°
2026-04-30 10:56 -27.16099 -109.43019 157 ft 103 kts 117°
2026-04-30 10:56 -27.16496 -109.42139 216 ft 147 kts 117°
2026-04-30 10:56 -27.16974 -109.41126 756 ft 141 kts 118°
2026-04-30 10:57 -27.17447 -109.40193 1397 ft 138 kts 119°
2026-04-30 10:57 -27.17915 -109.39251 1985 ft 145 kts 114°
2026-04-30 10:57 -27.18368 -109.38146 2312 ft 166 kts 114°
2026-04-30 10:57 -27.18893 -109.36901 2724 ft 186 kts 114°
2026-04-30 10:58 -27.19507 -109.35532 3112 ft 207 kts 116°
2026-04-30 10:58 -27.20224 -109.33996 3447 ft 234 kts 116°
2026-04-30 10:58 -27.20996 -109.32309 4015 ft 251 kts 116°
2026-04-30 10:58 -27.21792 -109.30553 4924 ft 253 kts 115°
2026-04-30 10:59 -27.22598 -109.28764 5750 ft 259 kts 116°
2026-04-30 10:59 -27.23415 -109.26953 6654 ft 262 kts 116°
2026-04-30 10:59 -27.24250 -109.25105 7423 ft 268 kts 116°
2026-04-30 10:59 -27.25132 -109.23250 8277 ft 271 kts 120°
2026-04-30 11:00 -27.26126 -109.21421 9108 ft 275 kts 120°
2026-04-30 11:00 -27.27127 -109.19571 9949 ft 279 kts 120°
2026-04-30 11:00 -27.28147 -109.17683 10580 ft 290 kts 120°
2026-04-30 11:00 -27.29232 -109.15668 10814 ft 313 kts 120°
2026-04-30 11:01 -27.30401 -109.13497 11095 ft 333 kts 120°
2026-04-30 11:01 -27.31613 -109.11246 11766 ft 339 kts 120°
2026-04-30 11:01 -27.32844 -109.08962 12461 ft 345 kts 120°
2026-04-30 11:01 -27.34095 -109.06639 13162 ft 350 kts 120°
2026-04-30 11:02 -27.35367 -109.04277 13857 ft 356 kts 120°
2026-04-30 11:02 -27.36652 -109.01885 14530 ft 359 kts 120°
2026-04-30 11:02 -27.37944 -108.99478 15294 ft 359 kts 120°
2026-04-30 11:02 -27.39238 -108.97067 15985 ft 362 kts 120°
2026-04-30 11:03 -27.40540 -108.94638 16695 ft 363 kts 120°
2026-04-30 11:03 -27.41850 -108.92195 17385 ft 366 kts 120°
2026-04-30 11:03 -27.43164 -108.89744 18068 ft 367 kts 121°
2026-04-30 11:04 -27.45827 -108.84768 19191 ft 374 kts 121°
2026-04-30 11:04 -27.47176 -108.82246 19730 ft 378 kts 121°
2026-04-30 11:04 -27.48533 -108.79705 20267 ft 381 kts 120°
2026-04-30 11:04 -27.49909 -108.77129 20749 ft 386 kts 120°
2026-04-30 11:05 -27.51298 -108.74527 21284 ft 389 kts 120°
2026-04-30 11:05 -27.52701 -108.71897 21778 ft 393 kts 120°
2026-04-30 11:05 -27.54115 -108.69245 22297 ft 397 kts 120°
2026-04-30 11:05 -27.55527 -108.66595 22782 ft 401 kts 120°
2026-04-30 11:06 -27.56986 -108.63856 23303 ft 404 kts 120°
2026-04-30 11:06 -27.58420 -108.61160 23777 ft 408 kts 120°
2026-04-30 11:06 -27.59884 -108.58408 24203 ft 411 kts 120°
2026-04-30 11:06 -27.61354 -108.55643 24639 ft 413 kts 120°
2026-04-30 11:07 -27.62856 -108.52815 25072 ft 416 kts 120°
2026-04-30 11:07 -27.64346 -108.50007 25480 ft 419 kts 120°
2026-04-30 11:07 -27.65847 -108.47181 25875 ft 421 kts 120°
2026-04-30 11:07 -27.67496 -108.44491 26269 ft 425 kts 127°
2026-04-30 11:08 -27.69468 -108.41994 26655 ft 429 kts 134°
2026-04-30 11:08 -27.71673 -108.39703 27035 ft 432 kts 136°
2026-04-30 11:08 -27.73894 -108.37412 27392 ft 434 kts 136°
2026-04-30 11:08 -27.76128 -108.35096 27756 ft 437 kts 136°
2026-04-30 11:09 -27.78375 -108.32766 28079 ft 440 kts 136°
2026-04-30 11:09 -27.80633 -108.30426 28476 ft 441 kts 136°
2026-04-30 11:09 -27.82904 -108.28075 28779 ft 444 kts 136°
2026-04-30 11:09 -27.85187 -108.25709 29063 ft 448 kts 136°
2026-04-30 11:10 -27.87492 -108.23321 29378 ft 450 kts 136°
2026-04-30 11:10 -27.89798 -108.20931 29702 ft 451 kts 136°
2026-04-30 11:10 -27.92122 -108.18520 30012 ft 454 kts 136°
2026-04-30 11:10 -27.94455 -108.16101 30288 ft 456 kts 136°
2026-04-30 11:11 -27.96794 -108.13673 30586 ft 457 kts 136°
2026-04-30 11:11 -27.99129 -108.11247 31000 ft 455 kts 136°
2026-04-30 11:11 -28.01464 -108.08819 31351 ft 455 kts 136°
2026-04-30 11:11 -28.03787 -108.06403 31777 ft 452 kts 136°
2026-04-30 11:12 -28.06090 -108.04007 32264 ft 448 kts 136°
2026-04-30 11:12 -28.08378 -108.01622 32706 ft 445 kts 137°
2026-04-30 11:12 -28.10648 -107.99253 33093 ft 443 kts 137°
2026-04-30 11:12 -28.12911 -107.96891 33459 ft 442 kts 137°
2026-04-30 11:13 -28.15167 -107.94535 33820 ft 440 kts 137°
2026-04-30 11:13 -28.17411 -107.92189 34229 ft 437 kts 137°
2026-04-30 11:13 -28.19637 -107.89861 34519 ft 435 kts 137°
2026-04-30 11:13 -28.21832 -107.87564 34718 ft 436 kts 137°
2026-04-30 11:14 -28.24058 -107.85234 34935 ft 436 kts 137°
2026-04-30 11:14 -28.26283 -107.82904 35175 ft 435 kts 137°
2026-04-30 11:14 -28.28507 -107.80573 35385 ft 435 kts 137°
2026-04-30 11:14 -28.30732 -107.78240 35598 ft 435 kts 137°
2026-04-30 11:15 -28.32949 -107.75915 35792 ft 435 kts 137°
2026-04-30 11:15 -28.35171 -107.73582 36003 ft 434 kts 137°
2026-04-30 11:15 -28.37388 -107.71253 36205 ft 434 kts 137°
2026-04-30 11:15 -28.39603 -107.68926 36389 ft 434 kts 137°
2026-04-30 11:16 -28.41819 -107.66595 36571 ft 434 kts 137°
2026-04-30 11:16 -28.44027 -107.64272 36774 ft 433 kts 137°
2026-04-30 11:16 -28.46242 -107.61940 36931 ft 433 kts 137°
2026-04-30 11:16 -28.48450 -107.59613 37099 ft 433 kts 137°
2026-04-30 11:17 -28.50657 -107.57287 37253 ft 433 kts 137°
2026-04-30 11:17 -28.52861 -107.54962 37433 ft 432 kts 137°
2026-04-30 11:17 -28.55064 -107.52637 37591 ft 432 kts 137°
2026-04-30 11:17 -28.57265 -107.50312 37725 ft 432 kts 137°
2026-04-30 11:18 -28.59470 -107.47982 37859 ft 432 kts 137°
2026-04-30 11:18 -28.63868 -107.43331 38153 ft 431 kts 137°
2026-04-30 11:18 -28.66066 -107.41004 38190 ft 432 kts 137°
2026-04-30 11:19 -28.70459 -107.36350 38191 ft 430 kts 137°
2026-04-30 11:19 -28.74831 -107.31711 38193 ft 431 kts 137°
2026-04-30 11:20 -28.79218 -107.27052 38187 ft 430 kts 137°
2026-04-30 11:20 -28.83592 -107.22401 38191 ft 430 kts 137°
2026-04-30 11:21 -28.87965 -107.17746 38189 ft 430 kts 137°
2026-04-30 11:21 -28.92338 -107.13083 38322 ft 431 kts 137°
2026-04-30 11:22 -28.94529 -107.10746 38440 ft 431 kts 137°
2026-04-30 11:22 -28.96712 -107.08415 38585 ft 430 kts 137°
2026-04-30 11:22 -29.01081 -107.03747 38808 ft 430 kts 137°
2026-04-30 11:23 -29.04706 -106.99870 38967 ft 429 kts 137°
2026-04-30 11:23 -29.09061 -106.95206 39111 ft 429 kts 137°
2026-04-30 11:24 -29.11238 -106.92872 39172 ft 430 kts 137°
2026-04-30 11:24 -29.15596 -106.88197 39189 ft 428 kts 137°
2026-04-30 11:25 -29.22114 -106.81192 39187 ft 429 kts 137°
2026-04-30 11:26 -29.30795 -106.71845 39205 ft 429 kts 137°
2026-04-30 11:26 -29.35140 -106.67158 39195 ft 429 kts 137°
2026-04-30 11:27 -29.39493 -106.62456 39188 ft 429 kts 137°
2026-04-30 11:27 -29.43794 -106.57804 39197 ft 428 kts 137°
2026-04-30 11:28 -29.50289 -106.50770 39200 ft 428 kts 137°
2026-04-30 11:29 -29.54613 -106.46079 39192 ft 428 kts 137°
2026-04-30 11:29 -29.61099 -106.39033 39199 ft 428 kts 137°
2026-04-30 11:30 -29.67576 -106.31982 39194 ft 427 kts 137°
2026-04-30 11:31 -29.71890 -106.27280 39203 ft 427 kts 137°
2026-04-30 11:31 -29.76204 -106.22570 39200 ft 427 kts 137°
2026-04-30 11:32 -29.80511 -106.17863 39198 ft 427 kts 137°
2026-04-30 11:32 -29.84824 -106.13144 39201 ft 427 kts 137°
2026-04-30 11:33 -29.91281 -106.06067 39204 ft 427 kts 137°
2026-04-30 11:33 -29.95589 -106.01339 39199 ft 427 kts 137°
2026-04-30 11:34 -29.99865 -105.96632 39198 ft 417 kts 139°
2026-04-30 11:34 -30.04012 -105.92068 39202 ft 412 kts 139°
2026-04-30 11:35 -30.08177 -105.87484 39195 ft 415 kts 139°
2026-04-30 11:35 -30.12355 -105.82876 39201 ft 415 kts 139°
2026-04-30 11:36 -30.16531 -105.78264 39199 ft 416 kts 139°
2026-04-30 11:36 -30.20711 -105.73641 39210 ft 416 kts 139°
2026-04-30 11:37 -30.24890 -105.69014 39199 ft 416 kts 139°
2026-04-30 11:37 -30.29071 -105.64379 39203 ft 416 kts 139°
2026-04-30 11:38 -30.33244 -105.59747 39192 ft 416 kts 139°
2026-04-30 11:38 -30.37417 -105.55110 39190 ft 416 kts 139°
2026-04-30 11:39 -30.41589 -105.50467 39190 ft 416 kts 139°
2026-04-30 11:39 -30.45732 -105.45851 39196 ft 416 kts 139°
2026-04-30 11:40 -30.49910 -105.41191 39200 ft 416 kts 139°
2026-04-30 11:40 -30.54080 -105.36533 39201 ft 417 kts 139°
2026-04-30 11:41 -30.58261 -105.31858 39199 ft 417 kts 139°
2026-04-30 11:41 -30.62441 -105.27176 39198 ft 418 kts 139°
2026-04-30 11:42 -30.66624 -105.22487 39200 ft 418 kts 139°
2026-04-30 11:42 -30.70811 -105.17787 39214 ft 419 kts 139°
2026-04-30 11:43 -30.75000 -105.13078 39204 ft 419 kts 139°
2026-04-30 11:43 -30.79191 -105.08361 39214 ft 420 kts 139°
2026-04-30 11:44 -30.83391 -105.03629 39201 ft 420 kts 139°
2026-04-30 11:44 -30.87588 -104.98894 39215 ft 421 kts 139°
2026-04-30 11:45 -30.91791 -104.94145 39204 ft 421 kts 139°
2026-04-30 11:45 -30.95993 -104.89391 39202 ft 421 kts 139°
2026-04-30 11:46 -31.00198 -104.84629 39211 ft 422 kts 139°
2026-04-30 11:46 -31.04406 -104.79857 39207 ft 422 kts 139°
2026-04-30 11:47 -31.08614 -104.75078 39212 ft 422 kts 139°
2026-04-30 11:47 -31.12821 -104.70294 39208 ft 422 kts 139°
2026-04-30 11:48 -31.17028 -104.65504 39211 ft 423 kts 139°
2026-04-30 11:48 -31.21238 -104.60704 39210 ft 423 kts 139°
2026-04-30 11:49 -31.25419 -104.55931 39204 ft 423 kts 139°
2026-04-30 11:49 -31.29655 -104.51088 39209 ft 423 kts 139°
2026-04-30 11:50 -31.33833 -104.46306 39200 ft 424 kts 139°
2026-04-30 11:50 -31.38046 -104.41477 39195 ft 424 kts 139°
2026-04-30 11:51 -31.42264 -104.36637 39200 ft 424 kts 139°
2026-04-30 11:51 -31.46474 -104.31799 39202 ft 425 kts 139°
2026-04-30 11:52 -31.50698 -104.26938 39208 ft 425 kts 139°
2026-04-30 11:52 -31.54919 -104.22075 39206 ft 426 kts 139°
2026-04-30 11:53 -31.59146 -104.17198 39211 ft 427 kts 139°
2026-04-30 11:53 -31.63380 -104.12306 39211 ft 427 kts 139°
2026-04-30 11:54 -31.67615 -104.07407 39212 ft 428 kts 139°
2026-04-30 11:54 -31.71853 -104.02497 39210 ft 429 kts 139°
2026-04-30 11:55 -31.76102 -103.97568 39216 ft 429 kts 139°
2026-04-30 11:55 -31.80348 -103.92635 39213 ft 430 kts 139°
2026-04-30 11:56 -31.84601 -103.87687 39217 ft 430 kts 139°
2026-04-30 11:56 -31.88854 -103.82733 39214 ft 431 kts 139°
2026-04-30 11:57 -31.93116 -103.77761 39218 ft 431 kts 139°
2026-04-30 11:57 -31.97349 -103.72817 39216 ft 432 kts 139°
2026-04-30 11:58 -32.01606 -103.67838 39217 ft 432 kts 139°
2026-04-30 11:58 -32.05872 -103.62841 39214 ft 432 kts 139°
2026-04-30 11:59 -32.10134 -103.57842 39213 ft 433 kts 139°
2026-04-30 11:59 -32.14404 -103.52827 39213 ft 433 kts 139°
2026-04-30 12:00 -32.18669 -103.47809 39213 ft 433 kts 139°
2026-04-30 12:00 -32.22930 -103.42791 39212 ft 433 kts 139°
2026-04-30 12:01 -32.27201 -103.37753 39209 ft 434 kts 139°
2026-04-30 12:01 -32.31466 -103.32715 39212 ft 434 kts 139°
2026-04-30 12:02 -32.35737 -103.27663 39208 ft 434 kts 139°
2026-04-30 12:02 -32.40010 -103.22602 39213 ft 435 kts 139°
2026-04-30 12:03 -32.46418 -103.14998 39208 ft 435 kts 139°
2026-04-30 12:04 -32.50664 -103.09950 39204 ft 436 kts 139°
2026-04-30 12:04 -32.54940 -103.04859 39208 ft 436 kts 139°
2026-04-30 12:05 -32.59249 -102.99723 39216 ft 437 kts 139°
2026-04-30 12:05 -32.63504 -102.94643 39208 ft 437 kts 139°
2026-04-30 12:06 -32.67819 -102.89484 39208 ft 438 kts 139°
2026-04-30 12:06 -32.72079 -102.84383 39210 ft 438 kts 139°
2026-04-30 12:07 -32.76371 -102.79237 39211 ft 439 kts 139°
2026-04-30 12:07 -32.80664 -102.74081 39212 ft 439 kts 139°
2026-04-30 12:08 -32.83485 -102.70690 39211 ft 439 kts 139°
2026-04-30 12:08 -32.85593 -102.68153 39211 ft 440 kts 139°
2026-04-30 12:09 -32.89893 -102.62973 39212 ft 440 kts 139°
2026-04-30 12:09 -32.94199 -102.57778 39213 ft 441 kts 139°
2026-04-30 12:10 -32.98503 -102.52579 39209 ft 441 kts 139°
2026-04-30 12:10 -33.02813 -102.47363 39210 ft 442 kts 139°
2026-04-30 12:11 -33.06395 -102.43024 39214 ft 442 kts 139°
2026-04-30 12:11 -33.10704 -102.37796 39208 ft 442 kts 139°
2026-04-30 12:12 -33.15015 -102.32558 39212 ft 443 kts 139°
2026-04-30 12:12 -33.19331 -102.27307 39208 ft 443 kts 139°
2026-04-30 12:13 -33.23647 -102.22046 39209 ft 444 kts 139°
2026-04-30 12:13 -33.27962 -102.16780 39207 ft 444 kts 139°
2026-04-30 12:14 -33.32281 -102.11501 39205 ft 444 kts 139°
2026-04-30 12:14 -33.36605 -102.06207 39206 ft 445 kts 139°
2026-04-30 12:15 -33.40927 -102.00909 39203 ft 445 kts 139°
2026-04-30 12:15 -33.45248 -101.95603 39204 ft 445 kts 139°
2026-04-30 12:16 -33.49540 -101.90324 39200 ft 446 kts 139°
2026-04-30 12:16 -33.53861 -101.85003 39193 ft 446 kts 139°
2026-04-30 12:17 -33.60355 -101.76989 39193 ft 447 kts 139°
2026-04-30 12:17 -33.64681 -101.71640 39198 ft 447 kts 139°
2026-04-30 12:18 -33.69011 -101.66279 39195 ft 448 kts 139°
2026-04-30 12:18 -33.73345 -101.60904 39200 ft 448 kts 139°
2026-04-30 12:19 -33.77691 -101.55506 39196 ft 449 kts 139°
2026-04-30 12:19 -33.82031 -101.50107 39192 ft 450 kts 139°
2026-04-30 12:20 -33.86378 -101.44691 39196 ft 450 kts 139°
2026-04-30 12:20 -33.90729 -101.39261 39197 ft 451 kts 139°
2026-04-30 12:21 -33.95080 -101.33822 39194 ft 451 kts 139°
2026-04-30 12:21 -33.99413 -101.28398 39193 ft 452 kts 139°
2026-04-30 12:22 -34.03789 -101.22912 39197 ft 452 kts 139°
2026-04-30 12:22 -34.08153 -101.17431 39193 ft 453 kts 139°
2026-04-30 12:23 -34.12511 -101.11950 39194 ft 453 kts 139°
2026-04-30 12:23 -34.16868 -101.06461 39193 ft 453 kts 139°
2026-04-30 12:24 -34.21203 -101.00991 39189 ft 454 kts 139°
2026-04-30 12:24 -34.25591 -100.95447 39192 ft 454 kts 139°
2026-04-30 12:25 -34.29924 -100.89962 39191 ft 454 kts 139°
2026-04-30 12:25 -34.34291 -100.84424 39182 ft 454 kts 138°
2026-04-30 12:26 -34.38649 -100.78890 39178 ft 455 kts 138°
2026-04-30 12:26 -34.43013 -100.73339 39180 ft 455 kts 138°
2026-04-30 12:27 -34.47384 -100.67771 39183 ft 456 kts 138°
2026-04-30 12:27 -34.51752 -100.62197 39186 ft 456 kts 138°
2026-04-30 12:28 -34.56120 -100.56613 39182 ft 457 kts 138°
2026-04-30 12:28 -34.60498 -100.51008 39179 ft 457 kts 138°
2026-04-30 12:29 -34.64869 -100.45403 39178 ft 458 kts 138°
2026-04-30 12:29 -34.69248 -100.39778 39179 ft 458 kts 138°
2026-04-30 12:30 -34.73600 -100.34185 39181 ft 458 kts 138°
2026-04-30 12:30 -34.77980 -100.28546 39180 ft 459 kts 138°
2026-04-30 12:31 -34.82363 -100.22895 39175 ft 459 kts 138°
2026-04-30 12:31 -34.86773 -100.17198 39177 ft 459 kts 138°
2026-04-30 12:32 -34.91125 -100.11568 39176 ft 460 kts 138°
2026-04-30 12:32 -34.95534 -100.05854 39177 ft 460 kts 138°
2026-04-30 12:33 -34.99881 -100.00212 39172 ft 460 kts 138°
2026-04-30 12:33 -35.04516 -99.94908 39174 ft 455 kts 145°
2026-04-30 12:34 -35.09357 -99.89915 39173 ft 455 kts 144°
2026-04-30 12:34 -35.14155 -99.84857 39172 ft 456 kts 144°
2026-04-30 12:35 -35.18923 -99.79761 39173 ft 456 kts 144°
2026-04-30 12:35 -35.23700 -99.74639 39173 ft 456 kts 144°
2026-04-30 12:36 -35.28466 -99.69521 39170 ft 456 kts 144°
2026-04-30 12:36 -35.33239 -99.64389 39159 ft 456 kts 144°
2026-04-30 12:37 -35.38004 -99.59256 39166 ft 456 kts 144°
2026-04-30 12:37 -35.42764 -99.54121 39161 ft 456 kts 144°
2026-04-30 12:38 -35.47526 -99.48973 39162 ft 456 kts 144°
2026-04-30 12:38 -35.52284 -99.43818 39161 ft 456 kts 144°
2026-04-30 12:39 -35.57047 -99.38649 39162 ft 457 kts 144°
2026-04-30 12:39 -35.61802 -99.33480 39161 ft 457 kts 144°
2026-04-30 12:40 -35.66556 -99.28304 39159 ft 457 kts 144°
2026-04-30 12:40 -35.71316 -99.23112 39160 ft 457 kts 144°
2026-04-30 12:41 -35.76041 -99.17950 39155 ft 457 kts 144°
2026-04-30 12:41 -35.80797 -99.12745 39159 ft 458 kts 144°
2026-04-30 12:42 -35.85550 -99.07535 39153 ft 458 kts 144°
2026-04-30 12:42 -35.90312 -99.02307 39158 ft 458 kts 144°
2026-04-30 12:43 -35.95066 -98.97077 39150 ft 458 kts 144°
2026-04-30 12:43 -35.99829 -98.91831 39148 ft 459 kts 144°
2026-04-30 12:44 -36.04591 -98.86575 39146 ft 459 kts 144°
2026-04-30 12:44 -36.09363 -98.81301 39149 ft 460 kts 144°
2026-04-30 12:45 -36.14128 -98.76024 39150 ft 460 kts 144°
2026-04-30 12:45 -36.18897 -98.70734 39146 ft 461 kts 144°
2026-04-30 12:46 -36.23674 -98.65426 39149 ft 461 kts 144°
2026-04-30 12:46 -36.28449 -98.60110 39148 ft 462 kts 144°
2026-04-30 12:47 -36.33234 -98.54775 39147 ft 462 kts 144°
2026-04-30 12:47 -36.38014 -98.49437 39147 ft 463 kts 144°
2026-04-30 12:48 -36.42802 -98.44081 39149 ft 463 kts 144°
2026-04-30 12:48 -36.47557 -98.38752 39148 ft 464 kts 144°
2026-04-30 12:49 -36.52348 -98.33373 39147 ft 464 kts 144°
2026-04-30 12:49 -36.57141 -98.27983 39148 ft 464 kts 144°
2026-04-30 12:50 -36.61926 -98.22592 39144 ft 465 kts 144°
2026-04-30 12:50 -36.66723 -98.17179 39143 ft 465 kts 144°
2026-04-30 12:51 -36.71515 -98.11761 39139 ft 465 kts 144°
2026-04-30 12:51 -36.76301 -98.06340 39143 ft 465 kts 144°
2026-04-30 12:52 -36.81093 -98.00904 39137 ft 465 kts 144°
2026-04-30 12:52 -36.85883 -97.95459 39139 ft 466 kts 144°
2026-04-30 12:53 -36.90669 -97.90011 39141 ft 465 kts 144°
2026-04-30 12:53 -36.95451 -97.84556 39133 ft 465 kts 144°
2026-04-30 12:54 -37.00229 -97.79098 39141 ft 465 kts 144°
2026-04-30 12:54 -37.05002 -97.73634 39137 ft 465 kts 144°
2026-04-30 12:55 -37.09765 -97.68172 39130 ft 465 kts 144°
2026-04-30 12:55 -37.14532 -97.62697 39141 ft 464 kts 144°
2026-04-30 12:56 -37.19290 -97.57221 39132 ft 464 kts 144°
2026-04-30 12:56 -37.24044 -97.51740 39130 ft 464 kts 144°
2026-04-30 12:57 -37.28795 -97.46253 39126 ft 464 kts 144°
2026-04-30 12:57 -37.33550 -97.40751 39122 ft 464 kts 144°
2026-04-30 12:58 -37.38266 -97.35286 39124 ft 464 kts 144°
2026-04-30 12:58 -37.43012 -97.29776 39122 ft 465 kts 144°
2026-04-30 12:59 -37.47764 -97.24248 39116 ft 465 kts 144°
2026-04-30 12:59 -37.52512 -97.18715 39114 ft 466 kts 144°
2026-04-30 13:00 -37.57274 -97.13155 39120 ft 467 kts 144°
2026-04-30 13:00 -37.62031 -97.07591 39125 ft 467 kts 144°
2026-04-30 13:01 -37.66027 -97.02910 39112 ft 468 kts 144°
2026-04-30 13:01 -37.70767 -96.97348 39120 ft 469 kts 144°
2026-04-30 13:02 -37.75555 -96.91718 39124 ft 470 kts 144°
2026-04-30 13:02 -37.80342 -96.86079 39128 ft 471 kts 144°
2026-04-30 13:03 -37.85136 -96.80422 39130 ft 472 kts 144°
2026-04-30 13:03 -37.89943 -96.74739 39136 ft 473 kts 144°
2026-04-30 13:04 -37.94748 -96.69046 39138 ft 474 kts 144°
2026-04-30 13:04 -37.99557 -96.63338 39131 ft 473 kts 144°
2026-04-30 13:05 -38.04354 -96.57634 39131 ft 472 kts 144°
2026-04-30 13:06 -38.11526 -96.49087 39131 ft 472 kts 144°
2026-04-30 13:06 -38.16307 -96.43376 39130 ft 472 kts 144°
2026-04-30 13:07 -38.21051 -96.37697 39124 ft 471 kts 144°
2026-04-30 13:07 -38.25814 -96.31985 39126 ft 470 kts 144°
2026-04-30 13:08 -38.30569 -96.26273 39126 ft 470 kts 144°
2026-04-30 13:08 -38.35313 -96.20563 39130 ft 469 kts 144°
2026-04-30 13:09 -38.40041 -96.14861 39128 ft 468 kts 144°
2026-04-30 13:09 -38.44768 -96.09150 39129 ft 468 kts 144°
2026-04-30 13:10 -38.49483 -96.03441 39133 ft 467 kts 144°
2026-04-30 13:10 -38.54194 -95.97728 39129 ft 467 kts 144°
2026-04-30 13:11 -38.58892 -95.92019 39133 ft 466 kts 144°
2026-04-30 13:11 -38.63592 -95.86298 39130 ft 466 kts 144°
2026-04-30 13:12 -38.68278 -95.80582 39136 ft 466 kts 144°
2026-04-30 13:12 -38.72970 -95.74848 39136 ft 466 kts 144°
2026-04-30 13:13 -38.79990 -95.66248 39131 ft 466 kts 144°
2026-04-30 13:14 -38.87014 -95.57619 39142 ft 466 kts 144°
2026-04-30 13:14 -38.94033 -95.48972 39150 ft 466 kts 144°
2026-04-30 13:15 -39.01020 -95.40339 39151 ft 467 kts 144°
2026-04-30 13:16 -39.05701 -95.34540 39160 ft 467 kts 144°
2026-04-30 13:16 -39.10378 -95.28736 39160 ft 467 kts 144°
2026-04-30 13:17 -39.17400 -95.20000 39161 ft 468 kts 144°
2026-04-30 13:18 -39.24420 -95.11241 39163 ft 468 kts 144°
2026-04-30 13:18 -39.31434 -95.02464 39167 ft 469 kts 145°
2026-04-30 13:19 -39.36107 -94.96601 39165 ft 469 kts 145°
2026-04-30 13:19 -39.40784 -94.90722 39165 ft 469 kts 144°
2026-04-30 13:20 -39.45460 -94.84833 39162 ft 469 kts 144°
2026-04-30 13:20 -39.50126 -94.78944 39168 ft 469 kts 144°
2026-04-30 13:21 -39.54793 -94.73044 39165 ft 469 kts 144°
2026-04-30 13:22 -39.61792 -94.64173 39159 ft 469 kts 144°
2026-04-30 13:22 -39.68779 -94.55291 39162 ft 469 kts 144°
2026-04-30 13:23 -39.75780 -94.46363 39165 ft 470 kts 144°
2026-04-30 13:24 -39.85071 -94.34473 39167 ft 471 kts 144°
2026-04-30 13:25 -39.94397 -94.22492 39169 ft 471 kts 144°
2026-04-30 13:26 -40.06056 -94.07446 39166 ft 472 kts 144°
2026-04-30 13:28 -40.17711 -93.92327 39168 ft 472 kts 144°
2026-04-30 13:28 -40.24695 -93.83230 39167 ft 473 kts 144°
2026-04-30 13:29 -40.34009 -93.71055 39170 ft 473 kts 144°
2026-04-30 13:31 -40.45641 -93.55778 39175 ft 473 kts 144°
2026-04-30 13:32 -40.57256 -93.40444 39159 ft 473 kts 144°
2026-04-30 13:33 -40.66534 -93.28138 39162 ft 474 kts 143°
2026-04-30 13:34 -40.73422 -93.18967 39157 ft 474 kts 143°
2026-04-30 13:35 -40.82685 -93.06591 39157 ft 474 kts 143°
2026-04-30 13:36 -40.91951 -92.94157 39160 ft 475 kts 143°
2026-04-30 13:36 -40.98890 -92.84813 39149 ft 475 kts 143°
2026-04-30 13:37 -41.05834 -92.75430 39144 ft 476 kts 143°
2026-04-30 13:38 -41.12775 -92.66022 39143 ft 476 kts 143°
2026-04-30 13:39 -41.22038 -92.53420 39147 ft 477 kts 143°
2026-04-30 13:40 -41.28977 -92.43943 39143 ft 478 kts 143°
2026-04-30 13:40 -41.33614 -92.37592 39145 ft 478 kts 142°
2026-04-30 13:41 -41.38239 -92.31244 39142 ft 478 kts 142°
2026-04-30 13:41 -41.42875 -92.24868 39145 ft 479 kts 142°
2026-04-30 13:42 -41.47507 -92.18483 39141 ft 479 kts 142°
2026-04-30 13:42 -41.54449 -92.08887 39140 ft 479 kts 142°
2026-04-30 13:43 -41.59077 -92.02472 39139 ft 479 kts 142°
2026-04-30 13:43 -41.63697 -91.96055 39136 ft 480 kts 142°
2026-04-30 13:44 -41.68321 -91.89616 39131 ft 480 kts 142°
2026-04-30 13:44 -41.72940 -91.83172 39133 ft 480 kts 142°
2026-04-30 13:45 -41.79828 -91.73534 39125 ft 479 kts 142°
2026-04-30 13:46 -41.84433 -91.67074 39126 ft 479 kts 142°
2026-04-30 13:46 -41.89037 -91.60600 39122 ft 479 kts 142°
2026-04-30 13:47 -41.93632 -91.54124 39127 ft 479 kts 141°
2026-04-30 13:47 -41.98225 -91.47637 39110 ft 479 kts 141°
2026-04-30 13:48 -42.02806 -91.41151 39110 ft 479 kts 141°
2026-04-30 13:48 -42.07392 -91.34646 39109 ft 479 kts 141°
2026-04-30 13:49 -42.11969 -91.28137 39112 ft 479 kts 141°
2026-04-30 13:49 -42.15770 -91.22721 39108 ft 479 kts 141°
2026-04-30 13:50 -42.20341 -91.16194 39114 ft 479 kts 141°
2026-04-30 13:50 -42.27184 -91.06396 39105 ft 478 kts 141°
2026-04-30 13:51 -42.31748 -90.99843 39107 ft 478 kts 141°
2026-04-30 13:51 -42.36301 -90.93289 39103 ft 478 kts 141°
2026-04-30 13:52 -42.40851 -90.86726 39104 ft 478 kts 141°
2026-04-30 13:52 -42.45399 -90.80152 39103 ft 478 kts 141°
2026-04-30 13:53 -42.49941 -90.73569 39099 ft 478 kts 141°
2026-04-30 13:53 -42.54485 -90.66970 39098 ft 478 kts 140°
2026-04-30 13:54 -42.59017 -90.60374 39096 ft 478 kts 140°
2026-04-30 13:54 -42.63551 -90.53759 39099 ft 478 kts 140°
2026-04-30 13:55 -42.68081 -90.47139 39096 ft 478 kts 140°
2026-04-30 13:55 -42.72610 -90.40510 39092 ft 478 kts 140°
2026-04-30 13:56 -42.77134 -90.33874 39095 ft 478 kts 140°
2026-04-30 13:56 -42.81651 -90.27232 39092 ft 478 kts 140°
2026-04-30 13:57 -42.86170 -90.20574 39092 ft 478 kts 140°
2026-04-30 13:57 -42.90688 -90.13900 39092 ft 479 kts 140°
2026-04-30 13:58 -42.97452 -90.03881 39088 ft 479 kts 140°
2026-04-30 13:59 -43.01912 -89.97203 39089 ft 479 kts 140°
2026-04-30 13:59 -43.06532 -89.90694 39089 ft 476 kts 142°
2026-04-30 14:00 -43.11187 -89.84243 39087 ft 477 kts 141°
2026-04-30 14:00 -43.18139 -89.74486 39090 ft 477 kts 141°
2026-04-30 14:01 -43.22764 -89.67956 39088 ft 477 kts 141°
2026-04-30 14:01 -43.27386 -89.61417 39087 ft 477 kts 141°
2026-04-30 14:02 -43.32001 -89.54873 39091 ft 477 kts 141°
2026-04-30 14:02 -43.36609 -89.48322 39085 ft 477 kts 141°
2026-04-30 14:03 -43.41215 -89.41752 39083 ft 477 kts 141°
2026-04-30 14:03 -43.45809 -89.35181 39075 ft 477 kts 141°
2026-04-30 14:04 -43.50400 -89.28600 39070 ft 476 kts 141°
2026-04-30 14:04 -43.54988 -89.22008 39079 ft 476 kts 141°
2026-04-30 14:05 -43.59574 -89.15403 39077 ft 476 kts 141°
2026-04-30 14:05 -43.64147 -89.08801 39074 ft 476 kts 141°
2026-04-30 14:06 -43.71009 -88.98866 39069 ft 476 kts 140°
2026-04-30 14:07 -43.77847 -88.88930 39069 ft 476 kts 140°
2026-04-30 14:08 -43.84679 -88.78967 39061 ft 475 kts 140°
2026-04-30 14:08 -43.91497 -88.68990 39051 ft 475 kts 140°
2026-04-30 14:09 -43.96003 -88.62376 39056 ft 474 kts 140°
2026-04-30 14:10 -44.02787 -88.52390 39045 ft 474 kts 140°
2026-04-30 14:10 -44.07307 -88.45715 39044 ft 474 kts 140°
2026-04-30 14:11 -44.11824 -88.39031 39043 ft 474 kts 140°
2026-04-30 14:11 -44.16332 -88.32343 39040 ft 474 kts 140°
2026-04-30 14:12 -44.20835 -88.25647 39036 ft 474 kts 140°
2026-04-30 14:12 -44.25334 -88.18940 39036 ft 474 kts 140°
2026-04-30 14:13 -44.29829 -88.12222 39033 ft 474 kts 140°
2026-04-30 14:13 -44.34324 -88.05489 39034 ft 474 kts 140°
2026-04-30 14:14 -44.38814 -87.98747 39029 ft 474 kts 140°
2026-04-30 14:14 -44.43302 -87.91992 39027 ft 474 kts 140°
2026-04-30 14:15 -44.47781 -87.85234 39027 ft 474 kts 140°
2026-04-30 14:15 -44.52267 -87.78448 39025 ft 474 kts 140°
2026-04-30 14:16 -44.56746 -87.71658 39023 ft 474 kts 140°
2026-04-30 14:16 -44.61218 -87.64861 39020 ft 475 kts 139°
2026-04-30 14:17 -44.65697 -87.58036 39020 ft 475 kts 139°
2026-04-30 14:17 -44.70137 -87.51255 39018 ft 475 kts 139°
2026-04-30 14:18 -44.74611 -87.44405 39005 ft 475 kts 139°
2026-04-30 14:18 -44.81308 -87.34121 39005 ft 475 kts 139°
2026-04-30 14:19 -44.88000 -87.23806 39003 ft 476 kts 139°
2026-04-30 14:20 -44.92459 -87.16911 38999 ft 476 kts 139°
2026-04-30 14:20 -44.99141 -87.06547 38992 ft 476 kts 139°
2026-04-30 14:21 -45.03590 -86.99625 38991 ft 476 kts 139°
2026-04-30 14:22 -45.10262 -86.89211 38986 ft 476 kts 139°
2026-04-30 14:22 -45.16918 -86.78784 38980 ft 476 kts 139°
2026-04-30 14:23 -45.25780 -86.64840 38978 ft 476 kts 138°
2026-04-30 14:24 -45.32411 -86.54358 38970 ft 475 kts 138°
2026-04-30 14:25 -45.41233 -86.40355 38959 ft 475 kts 138°
2026-04-30 14:26 -45.47826 -86.29841 38956 ft 475 kts 138°
2026-04-30 14:27 -45.54387 -86.19341 38948 ft 475 kts 138°
2026-04-30 14:27 -45.58773 -86.12298 38943 ft 474 kts 138°
2026-04-30 14:28 -45.65338 -86.01723 38929 ft 474 kts 137°
2026-04-30 14:28 -45.69708 -85.94661 38927 ft 474 kts 137°
2026-04-30 14:29 -45.77735 -85.81642 38917 ft 474 kts 137°
2026-04-30 14:31 -45.89331 -85.62726 38906 ft 474 kts 137°
2026-04-30 14:31 -45.95857 -85.52023 38903 ft 475 kts 137°
2026-04-30 14:32 -46.02373 -85.41296 38896 ft 475 kts 137°
2026-04-30 14:33 -46.06713 -85.34127 38892 ft 475 kts 137°
2026-04-30 14:33 -46.13223 -85.23339 38883 ft 476 kts 137°
2026-04-30 14:34 -46.17562 -85.16124 38882 ft 476 kts 137°
2026-04-30 14:34 -46.21891 -85.08908 38875 ft 476 kts 136°
2026-04-30 14:35 -46.28384 -84.98049 38870 ft 476 kts 136°
2026-04-30 14:36 -46.32572 -84.91022 38863 ft 476 kts 136°
2026-04-30 14:36 -46.36275 -84.84794 38864 ft 476 kts 136°
2026-04-30 14:37 -46.40597 -84.77505 38859 ft 477 kts 136°
2026-04-30 14:37 -46.44913 -84.70210 38854 ft 477 kts 136°
2026-04-30 14:38 -46.49223 -84.62904 38850 ft 477 kts 136°
2026-04-30 14:38 -46.53537 -84.55573 38844 ft 477 kts 136°
2026-04-30 14:39 -46.57838 -84.48242 38841 ft 477 kts 136°
2026-04-30 14:39 -46.62137 -84.40896 38841 ft 477 kts 136°
2026-04-30 14:40 -46.68582 -84.29846 38827 ft 477 kts 135°
2026-04-30 14:40 -46.72871 -84.22468 38812 ft 477 kts 135°
2026-04-30 14:41 -46.77134 -84.15116 38819 ft 477 kts 135°
2026-04-30 14:41 -46.81437 -84.07673 38807 ft 477 kts 135°
2026-04-30 14:42 -46.85685 -84.00305 38802 ft 477 kts 135°
2026-04-30 14:42 -46.89950 -83.92889 38800 ft 477 kts 135°
2026-04-30 14:43 -46.94217 -83.85449 38792 ft 477 kts 135°
2026-04-30 14:43 -46.98477 -83.78000 38792 ft 477 kts 135°
2026-04-30 14:44 -47.02732 -83.70541 38784 ft 477 kts 135°
2026-04-30 14:44 -47.06983 -83.63068 38781 ft 477 kts 135°
2026-04-30 14:45 -47.11237 -83.55569 38775 ft 477 kts 135°
2026-04-30 14:45 -47.15480 -83.48067 38770 ft 477 kts 134°
2026-04-30 14:46 -47.19715 -83.40560 38764 ft 478 kts 134°
2026-04-30 14:46 -47.23950 -83.33032 38759 ft 478 kts 134°
2026-04-30 14:47 -47.28185 -83.25485 38757 ft 478 kts 134°
2026-04-30 14:47 -47.32408 -83.17936 38749 ft 478 kts 134°
2026-04-30 14:48 -47.36634 -83.10362 38747 ft 478 kts 134°
2026-04-30 14:48 -47.40852 -83.02781 38740 ft 478 kts 134°
2026-04-30 14:49 -47.45065 -82.95188 38728 ft 478 kts 134°
2026-04-30 14:49 -47.49275 -82.87579 38728 ft 478 kts 134°
2026-04-30 14:50 -47.55575 -82.76152 38723 ft 478 kts 134°
2026-04-30 14:51 -47.61865 -82.64695 38717 ft 478 kts 133°
2026-04-30 14:52 -47.68150 -82.53198 38713 ft 478 kts 133°
2026-04-30 14:52 -47.74420 -82.41683 38705 ft 478 kts 133°
2026-04-30 14:53 -47.80677 -82.30139 38694 ft 478 kts 133°
2026-04-30 14:54 -47.88979 -82.14749 38688 ft 478 kts 133°
2026-04-30 14:55 -47.95210 -82.03140 38681 ft 478 kts 133°
2026-04-30 14:56 -48.03499 -81.87619 38673 ft 478 kts 132°
2026-04-30 14:57 -48.09705 -81.75940 38665 ft 478 kts 132°
2026-04-30 14:58 -48.17963 -81.60319 38658 ft 478 kts 132°
2026-04-30 14:58 -48.24144 -81.48569 38652 ft 478 kts 132°
2026-04-30 15:00 -48.34417 -81.28926 38645 ft 478 kts 132°
2026-04-30 15:01 -48.42613 -81.13150 38639 ft 478 kts 131°
2026-04-30 15:01 -48.48743 -81.01290 38635 ft 478 kts 131°
2026-04-30 15:02 -48.52824 -80.93366 38628 ft 478 kts 131°
2026-04-30 15:03 -48.63006 -80.73493 38633 ft 478 kts 131°
2026-04-30 15:04 -48.73144 -80.53559 38616 ft 478 kts 131°
2026-04-30 15:06 -48.83255 -80.33558 38614 ft 478 kts 131°
2026-04-30 15:07 -48.91298 -80.17554 38609 ft 478 kts 130°
2026-04-30 15:08 -48.99323 -80.01424 38608 ft 478 kts 129°
2026-04-30 15:09 -49.08730 -79.80375 38608 ft 479 kts 128°
2026-04-30 15:10 -49.16199 -79.63614 38603 ft 479 kts 127°
2026-04-30 15:11 -49.27378 -79.38232 38605 ft 480 kts 127°
2026-04-30 15:13 -49.36647 -79.16982 38606 ft 480 kts 127°
2026-04-30 15:14 -49.49565 -78.87083 38603 ft 480 kts 126°
2026-04-30 15:17 -49.66056 -78.48418 38604 ft 481 kts 126°
2026-04-30 15:19 -49.80628 -78.13774 38600 ft 480 kts 126°